Starlink 11365

operational
NORAD ID: 62886 Int'l Des: 2025-024 Owner: SPXS Country: US Constellation: starlink
LEOCIRCULAR

关于 Starlink 11365

正在加载描述...

实时位置

正在加载3D地球...

即将过境

高度历史

Altitude vs Time

uPlot chart will show altitude changes over time

两行轨道根数

1 62886U 25024H 26036.41265972 .00379901 00000-0 28217-2 0 9997
2 62886 43.0001 15.7079 0000880 290.8704 69.2069 15.70916494 58398
Epoch: Feb 5, 2026 • Age: 15 hours

当前状态

高度 353.9 km
速度 7.70 km/s
星下点 12.51°N, 129.24°W
发射日期 Feb 4, 2025
运行时间 1 years
类型 internet

技术详情

分类 Payload
质量 960.00 kg
干质量 910.00 kg
总质量 960.00 kg
长度 0.30 m
直径 4.10 m
跨度 29.00 m
形状 Box + pan
制造商 SPXS
平台类型 Starlink V2MD
阶段状态 In Orbit
所有者/国家 SPXS/US

大型星座

Loading constellations...